�������l�o���
Date,Time,MP-1(��Sv/h),MP-2(��Sv/h),MP-3(��Sv/h),MP-4(��Sv/h),MP-5(��Sv/h),MP-6(��Sv/h),MP-7(��Sv/h),MP-8(��Sv/h),����,����(m/s),���J
2019/11/25,00:00,0.692,0.981,0.658,1.220,0.856,0.407,0.702,0.666,�k��,0.9,��
2019/11/25,00:10,0.693,0.981,0.657,1.220,0.856,0.406,0.702,0.666,-,CALM,��
2019/11/25,00:20,0.693,0.982,0.659,1.219,0.856,0.406,0.701,0.666,�k��,0.5,��
2019/11/25,00:30,0.692,0.983,0.660,1.220,0.856,0.406,0.702,0.666,���k��,1.0,��
2019/11/25,00:40,0.692,0.983,0.660,1.218,0.855,0.405,0.700,0.667,���쐼,0.5,��
2019/11/25,00:50,0.691,0.983,0.660,1.218,0.854,0.404,0.702,0.666,��,1.1,��
2019/11/25,01:00,0.693,0.982,0.659,1.217,0.856,0.407,0.702,0.666,��,0.9,��
2019/11/25,01:10,0.692,0.982,0.660,1.219,0.856,0.405,0.701,0.666,�k��,2.0,��
2019/11/25,01:20,0.693,0.982,0.660,1.216,0.857,0.405,0.701,0.666,�k��,2.6,��
2019/11/25,01:30,0.692,0.982,0.659,1.218,0.855,0.406,0.700,0.667,�k�k��,2.1,��
2019/11/25,01:40,0.693,0.985,0.660,1.218,0.854,0.407,0.701,0.665,�k��,2.5,��
2019/11/25,01:50,0.693,0.983,0.659,1.218,0.855,0.407,0.700,0.666,���k��,3.4,��
2019/11/25,02:00,0.692,0.979,0.659,1.218,0.856,0.405,0.702,0.665,���k��,4.2,��
2019/11/25,02:10,0.692,0.981,0.659,1.218,0.854,0.405,0.701,0.666,���k��,3.2,��
2019/11/25,02:20,0.692,0.981,0.660,1.220,0.855,0.404,0.701,0.667,���k��,3.2,��
2019/11/25,02:30,0.693,0.981,0.658,1.220,0.855,0.407,0.700,0.665,�k��,4.6,��
2019/11/25,02:40,0.692,0.979,0.658,1.219,0.856,0.407,0.701,0.667,���k��,5.5,��
2019/11/25,02:50,0.691,0.982,0.660,1.221,0.854,0.408,0.701,0.665,���k��,3.3,��
2019/11/25,03:00,0.692,0.981,0.658,1.218,0.853,0.406,0.702,0.666,���k��,2.7,��
2019/11/25,03:10,0.693,0.983,0.659,1.219,0.856,0.406,0.700,0.666,�k��,0.7,��
2019/11/25,03:20,0.692,0.982,0.660,1.218,0.855,0.405,0.702,0.666,���k��,3.0,��
2019/11/25,03:30,0.693,0.980,0.659,1.219,0.856,0.406,0.700,0.667,�k��,5.2,��
2019/11/25,03:40,0.693,0.981,0.659,1.219,0.858,0.406,0.701,0.665,�k��,5.5,��
2019/11/25,03:50,0.691,0.982,0.659,1.220,0.856,0.405,0.701,0.667,�k�k��,5.5,��
2019/11/25,04:00,0.693,0.982,0.660,1.218,0.855,0.405,0.700,0.666,�k��,3.2,��
2019/11/25,04:10,0.693,0.981,0.661,1.218,0.857,0.406,0.700,0.666,�k�k��,4.2,��
2019/11/25,04:20,0.693,0.983,0.661,1.219,0.856,0.406,0.701,0.666,�k��,4.9,��
2019/11/25,04:30,0.695,0.980,0.660,1.219,0.856,0.405,0.702,0.666,�k�k��,5.3,��
2019/11/25,04:40,0.691,0.981,0.659,1.218,0.855,0.404,0.702,0.665,�k�k��,5.3,��
2019/11/25,04:50,0.693,0.983,0.660,1.218,0.856,0.406,0.702,0.666,�k��,6.6,��
2019/11/25,05:00,0.692,0.982,0.662,1.218,0.857,0.404,0.701,0.665,�k��,6.6,��
2019/11/25,05:10,0.692,0.983,0.660,1.218,0.856,0.407,0.702,0.665,�k�k��,6.1,��
2019/11/25,05:20,0.693,0.984,0.659,1.219,0.856,0.406,0.702,0.667,�k��,5.6,��
2019/11/25,05:30,0.692,0.983,0.661,1.217,0.855,0.406,0.702,0.665,�k�k��,5.3,��
2019/11/25,05:40,0.693,0.982,0.661,1.222,0.855,0.406,0.701,0.666,�k�k��,4.7,��
2019/11/25,05:50,0.694,0.983,0.659,1.221,0.856,0.405,0.702,0.665,�k�k��,4.1,��
2019/11/25,06:00,0.692,0.983,0.661,1.223,0.854,0.403,0.702,0.666,�k��,4.0,��
2019/11/25,06:10,0.692,0.980,0.661,1.219,0.857,0.404,0.702,0.666,�k��,4.0,��
2019/11/25,06:20,0.693,0.982,0.661,1.220,0.856,0.405,0.703,0.665,���k��,3.8,��
2019/11/25,06:30,0.694,0.981,0.662,1.218,0.856,0.405,0.701,0.667,��,2.2,��
2019/11/25,06:40,0.695,0.983,0.662,1.220,0.857,0.406,0.702,0.666,��,2.1,��
2019/11/25,06:50,0.693,0.981,0.660,1.221,0.857,0.405,0.700,0.667,��,1.0,��
2019/11/25,07:00,0.694,0.984,0.661,1.222,0.858,0.406,0.702,0.667,��쓌,1.1,��
2019/11/25,07:10,0.693,0.984,0.660,1.220,0.856,0.403,0.700,0.667,���쓌,1.0,��
2019/11/25,07:20,0.694,0.982,0.660,1.219,0.859,0.406,0.702,0.667,���쓌,0.8,��
2019/11/25,07:30,0.691,0.984,0.661,1.222,0.855,0.405,0.703,0.668,���쓌,0.8,��
2019/11/25,07:40,0.693,0.984,0.660,1.221,0.858,0.406,0.702,0.666,��,1.5,��
2019/11/25,07:50,0.694,0.983,0.662,1.221,0.858,0.404,0.702,0.668,���쓌,1.1,��
2019/11/25,08:00,0.696,0.982,0.661,1.220,0.859,0.406,0.702,0.667,-,CALM,��
2019/11/25,08:10,0.694,0.983,0.663,1.221,0.857,0.407,0.704,0.666,�k��,1.8,��
2019/11/25,08:20,0.697,0.984,0.663,1.221,0.857,0.408,0.704,0.668,���k��,1.7,��
2019/11/25,08:30,0.696,0.982,0.664,1.222,0.857,0.408,0.704,0.666,���k��,2.3,��
2019/11/25,08:40,0.696,0.981,0.663,1.221,0.862,0.408,0.701,0.668,���쓌,2.6,��
2019/11/25,08:50,0.698,0.984,0.662,1.224,0.861,0.406,0.702,0.668,���쐼,1.2,�L
2019/11/25,09:00,0.697,0.984,0.663,1.223,0.859,0.408,0.702,0.669,�k��,0.8,��
2019/11/25,09:10,0.696,0.983,0.666,1.225,0.860,0.406,0.701,0.668,�k��,2.5,��
2019/11/25,09:20,0.697,0.980,0.661,1.222,0.857,0.407,0.704,0.670,���k��,2.7,��
2019/11/25,09:30,0.697,0.981,0.662,1.223,0.861,0.407,0.703,0.668,�k��,1.8,��
2019/11/25,09:40,0.697,0.982,0.661,1.226,0.859,0.408,0.704,0.668,�k��,4.9,��
2019/11/25,09:50,0.698,0.984,0.662,1.227,0.861,0.406,0.704,0.669,�k��,4.0,��
2019/11/25,10:00,0.696,0.985,0.662,1.225,0.861,0.406,0.705,0.669,�k��,6.0,��
2019/11/25,10:10,0.698,0.985,0.663,1.225,0.863,0.405,0.704,0.670,���k��,2.9,��
2019/11/25,10:20,0.698,0.986,0.665,1.227,0.863,0.405,0.704,0.669,�k��,3.8,��
2019/11/25,10:30,0.699,0.987,0.664,1.227,0.863,0.407,0.706,0.670,�k��,3.4,��
2019/11/25,10:40,0.699,0.989,0.664,1.229,0.862,0.408,0.704,0.670,�k�k��,3.2,��
2019/11/25,10:50,0.699,0.991,0.667,1.229,0.864,0.404,0.703,0.668,�k�k��,2.8,��
2019/11/25,11:00,0.698,0.990,0.663,1.228,0.864,0.407,-,0.668,���k��,4.1,��
2019/11/25,11:10,0.700,0.989,0.665,1.229,0.863,0.405,-,0.669,�k��,5.2,��
2019/11/25,11:20,0.700,0.991,0.665,1.231,0.864,0.405,-,0.669,���k��,6.0,��
2019/11/25,11:30,0.699,0.988,0.664,1.228,0.864,0.405,-,0.668,���k��,7.4,��
2019/11/25,11:40,0.700,0.992,0.666,1.230,0.866,0.405,-,0.669,�k��,6.0,��
2019/11/25,11:50,0.700,0.992,0.666,1.229,0.864,0.406,-,0.668,�k��,4.9,��
2019/11/25,12:00,0.699,0.991,0.666,1.230,0.864,0.407,-,0.667,�k�k��,3.8,��
2019/11/25,12:10,0.698,0.991,0.666,1.227,0.866,0.405,-,0.667,�k�k��,5.8,��
2019/11/25,12:20,0.698,0.996,0.665,1.230,0.865,0.405,-,0.669,�k,4.9,��
2019/11/25,12:30,0.699,0.994,0.665,1.230,0.864,0.405,-,0.669,�k�k��,6.4,��
2019/11/25,12:40,0.699,0.993,0.665,1.230,0.867,0.405,-,0.668,�k�k��,8.8,��
2019/11/25,12:50,0.697,0.994,0.666,1.229,0.863,0.405,-,0.667,�k�k��,9.9,��
2019/11/25,13:00,0.696,0.993,0.664,1.231,0.867,0.405,-,0.668,�k�k��,9.9,��
2019/11/25,13:10,0.697,0.993,0.664,1.233,0.867,0.404,-,0.667,�k�k��,8.8,��
2019/11/25,13:20,0.699,0.993,0.666,1.232,0.866,0.403,-,0.667,�k�k��,9.1,��
2019/11/25,13:30,0.697,0.993,0.668,1.232,0.867,0.404,-,0.667,�k�k��,9.9,��
2019/11/25,13:40,0.697,0.991,0.667,1.231,0.864,0.404,-,0.669,�k,11.1,��
2019/11/25,13:50,0.697,0.994,0.666,1.236,0.865,0.404,-,0.666,�k,8.3,��
2019/11/25,14:00,0.695,0.991,0.666,1.233,0.867,0.404,-,0.669,�k,7.7,��
2019/11/25,14:10,0.694,0.992,0.667,1.234,0.866,0.405,-,0.668,�k�k��,10.4,�L
2019/11/25,14:20,0.695,0.991,0.666,1.235,0.866,0.405,-,0.669,�k,8.2,�L
2019/11/25,14:30,0.697,0.992,0.667,1.233,0.865,0.403,-,0.668,�k,8.9,�L
2019/11/25,14:40,0.698,0.996,0.667,1.236,0.866,0.404,-,0.667,�k,12.2,�L
2019/11/25,14:50,0.700,0.995,0.669,1.233,0.867,0.405,0.703,0.667,�k,8.8,�L
2019/11/25,15:00,0.698,0.994,0.668,1.234,0.868,0.404,0.705,0.667,�k,9.4,�L
2019/11/25,15:10,0.699,0.996,0.668,1.233,0.868,0.404,0.703,0.667,�k,10.1,�L
2019/11/25,15:20,0.700,0.995,0.668,1.234,0.867,0.406,0.704,0.668,�k,8.6,�L
2019/11/25,15:30,0.700,0.996,0.669,1.235,0.867,0.405,0.702,0.669,�k,9.4,�L
2019/11/25,15:40,0.701,0.995,0.671,1.233,0.867,0.406,0.703,0.668,�k,9.6,�L
2019/11/25,15:50,0.701,0.997,0.668,1.237,0.869,0.406,0.703,0.671,�k,8.0,�L
2019/11/25,16:00,0.699,0.997,0.670,1.235,0.870,0.405,0.704,0.673,�k,6.6,��
2019/11/25,16:10,0.701,0.997,0.670,1.234,0.872,0.405,0.704,0.671,�k�k��,9.1,��
2019/11/25,16:20,0.700,1.001,0.669,1.234,0.872,0.408,0.705,0.671,�k,9.1,��
2019/11/25,16:30,0.701,1.000,0.671,1.233,0.870,0.405,0.705,0.671,�k,7.2,��
2019/11/25,16:40,0.701,0.999,0.669,1.237,0.872,0.406,0.706,0.670,�k,7.4,��
2019/11/25,16:50,0.700,1.001,0.668,1.237,0.871,0.406,0.705,0.672,�k,7.4,��
2019/11/25,17:00,0.700,1.001,0.667,1.236,0.871,0.406,0.705,0.672,�k,8.5,��
2019/11/25,17:10,0.701,1.002,0.669,1.235,0.874,0.404,0.703,0.671,�k,8.0,��
2019/11/25,17:20,0.701,1.001,0.671,1.236,0.870,0.404,0.702,0.672,�k,7.4,��
2019/11/25,17:30,0.700,1.001,0.668,1.238,0.873,0.405,0.703,0.670,�k,7.8,��
2019/11/25,17:40,0.699,1.001,0.670,1.236,0.871,0.404,0.705,0.673,�k,8.5,��
2019/11/25,17:50,0.700,1.001,0.669,1.236,0.872,0.405,0.704,0.670,�k�k��,7.7,��
2019/11/25,18:00,0.699,1.002,0.670,1.237,0.872,0.405,0.703,0.672,�k,7.7,��
2019/11/25,18:10,0.698,1.002,0.670,1.238,0.873,0.404,0.704,0.671,�k�k��,8.3,��
2019/11/25,18:20,0.700,1.001,0.670,1.236,0.874,0.404,0.704,0.671,�k�k��,6.9,��
2019/11/25,18:30,0.700,1.002,0.670,1.238,0.872,0.404,0.703,0.672,�k,6.6,�L
2019/11/25,18:40,0.699,1.002,0.672,1.239,0.874,0.404,0.704,0.670,�k�k��,7.7,��
2019/11/25,18:50,0.701,1.003,0.670,1.238,0.874,0.403,0.704,0.673,�k�k��,9.1,��
2019/11/25,19:00,0.700,1.000,0.669,1.238,0.873,0.403,0.704,0.671,�k�k��,8.9,��
2019/11/25,19:10,0.698,1.002,0.671,1.240,0.873,0.405,0.705,0.673,�k�k��,8.3,��
2019/11/25,19:20,0.699,1.002,0.670,1.240,0.874,0.404,0.704,0.672,�k�k��,6.7,��
2019/11/25,19:30,0.700,1.004,0.672,1.238,0.870,0.405,0.706,0.671,�k,7.1,��
2019/11/25,19:40,0.699,1.002,0.670,1.240,0.871,0.404,0.704,0.671,�k�k��,7.4,��
2019/11/25,19:50,0.699,1.001,0.671,1.240,0.873,0.405,0.705,0.671,�k�k��,7.2,��
2019/11/25,20:00,0.701,1.003,0.671,1.238,0.874,0.405,0.705,0.672,�k,7.4,��
2019/11/25,20:10,0.700,1.000,0.670,1.240,0.873,0.405,0.703,0.672,�k�k��,6.9,��
2019/11/25,20:20,0.701,1.003,0.671,1.239,0.874,0.405,0.704,0.673,�k�k��,8.2,��
2019/11/25,20:30,0.699,1.001,0.672,1.240,0.873,0.405,0.704,0.672,�k�k��,7.5,��
2019/11/25,20:40,0.697,1.002,0.671,1.239,0.873,0.405,0.706,0.672,�k�k��,8.2,��
2019/11/25,20:50,0.699,1.003,0.672,1.242,0.873,0.406,0.704,0.671,�k�k��,6.0,��
2019/11/25,21:00,0.700,1.003,0.671,1.238,0.873,0.405,0.705,0.671,�k�k��,5.3,��
2019/11/25,21:10,0.698,1.004,0.671,1.241,0.872,0.403,0.704,0.671,�k,5.0,��
2019/11/25,21:20,0.701,1.004,0.670,1.239,0.874,0.404,0.704,0.670,�k,7.1,��
2019/11/25,21:30,0.699,1.003,0.672,1.238,0.874,0.404,0.704,0.672,�k,8.3,��
2019/11/25,21:40,0.698,1.002,0.673,1.241,0.876,0.404,0.704,0.670,�k�k��,7.1,��
2019/11/25,21:50,0.700,1.001,0.672,1.243,0.873,0.406,0.706,0.672,�k,7.2,�L
2019/11/25,22:00,0.697,1.005,0.670,1.240,0.874,0.404,0.704,0.671,�k,6.9,�L
2019/11/25,22:10,0.699,1.003,0.670,1.240,0.874,0.404,0.704,0.671,�k,6.6,�L
2019/11/25,22:20,0.697,1.004,0.672,1.242,0.875,0.405,0.706,0.672,�k�k��,6.6,�L
2019/11/25,22:30,0.698,1.004,0.669,1.242,0.874,0.404,0.704,0.673,�k,7.8,��
2019/11/25,22:40,0.699,1.004,0.670,1.240,0.873,0.403,0.705,0.672,�k,7.2,��
2019/11/25,22:50,0.699,1.002,0.671,1.240,0.875,0.404,0.705,0.672,�k�k��,9.3,��
2019/11/25,23:00,0.698,1.004,0.671,1.241,0.873,0.403,0.704,0.672,�k,5.8,��
2019/11/25,23:10,0.699,1.004,0.670,1.240,0.872,0.404,0.705,0.674,�k�k��,6.3,�L
2019/11/25,23:20,0.697,1.004,0.670,1.243,0.873,0.404,0.707,0.672,�k�k��,6.6,��
2019/11/25,23:30,0.697,1.006,0.671,1.241,0.874,0.403,0.704,0.671,�k�k��,7.1,�L
2019/11/25,23:40,0.698,1.002,0.671,1.240,0.874,0.404,0.705,0.671,�k�k��,6.6,��
2019/11/25,23:50,0.699,1.005,0.671,1.239,0.874,0.402,0.703,0.671,�k�k��,6.6,��
